Regional Weather Roundup
Issued by NWS

Home | Current Version | Previous Version | Text Only | Print | Product List | Glossary On
Versions: 1 2 3 4 5 6 7 8 9 10 11 12 13 14 15 16 17 18 19 20 21 22 23 24 25 26 27 28 29 30 31 32 33 34 35 36 37 38 39 40 41 42 43 44 45 46 47 48
000
ASUS45 KSLC 300210
RWRUT

UTAH REGIONAL WEATHER ROUNDUP
NATIONAL WEATHER SERVICE SALT LAKE CITY UT
800 PM MDT SUN MAR 29 2015

UTZ001>011-023>025-300300-

NORTHERN UTAH

CITY           SKY/WX    TMP DP  RH WIND       PRES   REMARKS
BRIGHAM CITY   CLEAR     60  14  16 CALM      30.19S
HILL AFB       NOT AVBL
LOGAN          CLEAR     60  15  17 CALM      30.19S
OGDEN          CLEAR     59  18  20 NW3       30.19F
PROVO AIRPORT  PTCLDY    64  34  32 NW12G21   30.18
SALT LAKE CITY PTCLDY    60  22  23 NW9       30.19F
VERNAL         CLEAR     61  16  17 SW3       30.15R
WENDOVER       CLEAR     57  12  17 CALM      30.19S
HEBER CITY     CLEAR     54  19  26 SW8       30.19S
WEST JORDAN    CLEAR     55  25  30 NW6       30.21S

$$

UTZ012>022-026-027-300300-

SOUTHERN/CENTRAL UTAH

CITY           SKY/WX    TMP DP  RH WIND       PRES   REMARKS
BLANDING       CLEAR     60  15  17 NW9       30.24R
BRYCE CANYON   MOCLDY    47  31  53 CALM      30.28S
CEDAR CITY     CLEAR     61  20  20 N6        30.16R
DELTA          PTCLDY    64   7  10 CALM      30.16S
HANKSVILLE     MOCLDY    72  12  10 CALM      30.11S
MILFORD        MOCLDY    59  19  21 N8        30.14S
MOAB/CYNLANDS  CLEAR     62  -2   7 W6        30.09S
PRICE          CLEAR     63   4   9 W9        30.16S
ST GEORGE      CLEAR     79  25  13 SW7       30.02S
KANAB          PTCLDY    66  23  19 NW5       30.15S

$$

REGIONAL REPORTS     COLORADO/ARIZONA

CITY           SKY/WX    TMP DP  RH WIND       PRES   REMARKS
CRAIG, CO      CLEAR     47  21  35 SW8       30.19R
GRAND JUNCTION CLEAR     63  10  12 N8        30.11S
RIFLE          CLEAR     61  12  14 W9        30.14R
MONTROSE       CLEAR     62  12  14 CALM      30.18R
CORTEZ         CLEAR     56  19  23 SE5       30.19R
PAGE, AZ       MOCLDY    72  22  15 E3        30.08S
GRAND CANYON   MOCLDY    55  24  30 CALM      30.24R
KINGMAN        PTCLDY    69  26  20 SW10      30.06S
FLAGSTAFF      PTCLDY    56  20  24 SW3       30.27R

$$

REGIONAL REPORTS    NEVADA/IDAHO/WYOMING

CITY           SKY/WX    TMP DP  RH WIND       PRES   REMARKS
LAS VEGAS, NV  MOCLDY    86  17   8 SE3       29.93S
ELY            MOCLDY    61  13  15 SW8       30.18S
ELKO           CLEAR     62   2   9 SW3       30.15S
POCATELLO, ID  CLEAR     54  16  22 SW9       30.19S
BURLEY         CLEAR     56  21  25 W5        30.17S
EVANSTON, WY   CLEAR     48  16  27 W9        30.27S
ROCK SPRINGS   CLEAR     51  12  21 NW9       30.22R
KEMMERER       CLEAR     43  14  31 NW9       30.27R

$$


USA.gov is the U.S. government's official web portal to all federal, state and local government web resources and services.